Weather History for KLTS - May, 2013

Change the Weather History Date:

Friday, May 24, 2013

  Actual Average (KHBR) Record (KHBR)
Temperature  
Mean Temperature 77 °F -  
Max Temperature 91 °F 84 °F - (-1)
Min Temperature 64 °F 58 °F - (-1)
Cooling Degree Days 12    
Growing Degree Days 27 (Base 50)    
Moisture  
Dew Point 66 °F    
Average Humidity 70    
Maximum Humidity 99    
Minimum Humidity 42    
Precipitation  
Precipitation 0.00 in - - ()
Sea Level Pressure  
Sea Level Pressure 30.05 in    
Wind  
Wind Speed 13 mph (SE)    
Max Wind Speed 30 mph    
Max Gust Speed 36 mph    
Visibility 10 miles    
Events      
Averages and records for this station are not official NWS values.
T = Trace of Precipitation, MM = Missing Value Source: NWS Daily Summary

Daily Weather History Graph

Daily Weather History Graph

Search for Another Location

Airport or City:

Trip Planner

Search our weather history database for the weather conditions in past years. The results will help you decide how hot, cold, wet, or windy it might be!

Date:

Astronomy

May. 24, 2013 Rise Set
Actual Time 6:28 AM CDT 8:39 PM CDT
Civil Twilight 5:59 AM CDT 9:08 PM CDT
Nautical Twilight 5:24 AM CDT 9:43 PM CDT
Astronomical Twilight 4:47 AM CDT 10:21 PM CDT
Moon 8:24 PM CDT (5/24) 5:59 AM CDT (5/24)
Length of Visible Light 15h 08m
Length of Day
14h 11m
Full, 100% of the Moon is Illuminated
May 24
Full
May 24
Full
May 31
Last Quarter
Jun 8
New
Jun 16
First Quarter

Hourly Weather History & Observations

Time (CDT) Temp. Heat Index Dew Point Humidity Pressure Visibility Wind Dir Wind Speed Gust Speed Precip Events Conditions
12:58 AM 72.7 °F - 67.3 °F 83% 30.00 in 10.0 mi East 12.7 mph - N/A   Clear
1:58 AM 70.9 °F - 67.3 °F 88% 29.98 in 10.0 mi East 13.8 mph - N/A   Clear
2:58 AM 68.9 °F - 65.7 °F 89% 30.01 in 10.0 mi ENE 10.4 mph - N/A   Clear
3:58 AM 67.6 °F - 65.7 °F 93% 30.03 in 10.0 mi ENE 9.2 mph - N/A   Clear
4:58 AM 66.6 °F - 65.1 °F 95% 30.02 in 10.0 mi East 12.7 mph - N/A   Clear
5:58 AM 64.9 °F - 63.9 °F 96% 30.05 in 10.0 mi East 9.2 mph - N/A   Clear
6:58 AM 64.2 °F - 64.0 °F 99% 30.06 in 10.0 mi NE 8.1 mph - N/A   Clear
7:38 AM 66.2 °F - 64.4 °F 94% 30.11 in 10.0 mi NE 4.6 mph - N/A   Mostly Cloudy
7:58 AM 66.6 °F - 63.9 °F 91% 30.09 in 10.0 mi East 6.9 mph - N/A   Overcast
8:58 AM 70.3 °F - 64.6 °F 82% 30.09 in 10.0 mi ESE 15.0 mph - N/A   Mostly Cloudy
9:58 AM 74.1 °F - 66.6 °F 77% 30.09 in 10.0 mi SE 15.0 mph - N/A   Overcast
10:53 AM 78.8 °F - 68.0 °F 69% 30.11 in 10.0 mi SE 9.2 mph - N/A   Scattered Clouds
10:58 AM 78.8 °F - 68.5 °F 71% 30.07 in 10.0 mi ESE 11.5 mph - N/A   Scattered Clouds
11:58 AM 83.3 °F 87.1 °F 69.4 °F 63% 30.08 in 10.0 mi SE 15.0 mph 23.0 mph N/A   Scattered Clouds
12:13 PM 84.2 °F 88.4 °F 69.8 °F 62% 30.12 in 10.0 mi SSE 13.8 mph - N/A   Mostly Cloudy
12:53 PM 86.0 °F 90.4 °F 69.8 °F 58% 30.10 in 10.0 mi South 15.0 mph - N/A   Mostly Cloudy
12:58 PM 86.4 °F 90.4 °F 68.9 °F 56% 30.06 in 10.0 mi SSE 18.4 mph - N/A   Mostly Cloudy
1:03 PM 86.0 °F 89.4 °F 68.0 °F 55% 30.10 in 10.0 mi SSE 16.1 mph 23.0 mph N/A   Mostly Cloudy
1:08 PM 87.8 °F 91.4 °F 68.0 °F 52% 30.10 in 10.0 mi South 15.0 mph 23.0 mph N/A   Mostly Cloudy
1:58 PM 89.6 °F 91.5 °F 65.1 °F 44% 30.03 in 10.0 mi SE 17.3 mph 24.2 mph N/A   Scattered Clouds
2:58 PM 89.1 °F 90.6 °F 64.6 °F 44% 30.02 in 10.0 mi SE 16.1 mph 24.2 mph N/A   Scattered Clouds
3:58 PM 88.9 °F 91.0 °F 65.5 °F 46% 29.99 in 10.0 mi SE 20.7 mph - N/A   Scattered Clouds
4:58 PM 90.5 °F 92.2 °F 64.6 °F 42% 29.98 in 10.0 mi SE 19.6 mph - N/A   Partly Cloudy
5:58 PM 88.2 °F 90.6 °F 66.0 °F 48% 29.98 in 10.0 mi SE 25.3 mph - N/A   Partly Cloudy
6:58 PM 84.0 °F 86.5 °F 66.9 °F 56% 29.99 in 10.0 mi SE 29.9 mph 35.7 mph N/A   Scattered Clouds
7:58 PM 80.1 °F 82.3 °F 67.1 °F 64% 30.02 in 10.0 mi SSE 27.6 mph 29.9 mph N/A   Clear
8:58 PM 77.2 °F - 59.5 °F 54% 30.06 in 10.0 mi SSE 15.0 mph - N/A   Clear
9:58 PM 73.4 °F - 63.1 °F 70% 30.08 in 10.0 mi SSE 12.7 mph - N/A   Partly Cloudy
10:58 PM 70.9 °F - 61.9 °F 73% 30.11 in 10.0 mi SSE 12.7 mph - N/A   Clear
11:58 PM 68.0 °F - 61.3 °F 79% 30.08 in 10.0 mi South 6.9 mph - N/A   Clear